Location: Chlina
(50.4483°N, 19.8257°E)
Time: 15:42:39
(UTC+00:00)

Daily predictions for brighter satellites

Satellite Brightness Start Highest point End
(mag) Time Altitude Azimuth Time Altitude Azimuth Time Altitude Azimuth
CZ-4B R/B 4.3 15:09:42 10° ESE 15:13:33 21° NE 15:17:23 10° N
SL-16 R/B 4.2 15:09:16 10° N 15:14:31 30° WNW 15:19:46 10° WSW
Cosmos 2360 Rocket 3.6 15:17:33 10° N 15:21:29 19° NE 15:25:23 10° ENE
CZ-2D R/B 4.5 15:19:03 10° ESE 15:21:58 21° ENE 15:24:53 10° NNE
USA 306 3.1 15:18:52 10° WNW 15:23:04 55° N 15:27:15 10° E
Cosmos 1633 Rocket 4.0 15:19:40 10° N 15:23:24 26° ENE 15:27:07 10° SE
Cosmos 1939 Rocket 3.2 15:20:01 10° SE 15:23:53 43° ENE 15:27:44 10° N
Cosmos 1151 Rocket 4.2 15:21:52 10° SE 15:25:16 23° E 15:28:41 10° NE
Cosmos 1666 3.6 15:24:20 10° NNE 15:27:32 27° ENE 15:30:44 10° SE
Cosmos 1763 Rocket 3.6 15:23:16 10° SSW 15:28:21 82° WNW 15:33:33 10° NNE
Cosmos 1782 3.3 15:24:43 10° SSE 15:28:27 39° E 15:32:10 10° NNE
Cosmos 1818 3.7 15:23:31 10° NW 15:28:56 55° NE 15:34:17 10° ESE
Meteor 1-20 Rocket 4.5 15:23:13 10° NNW 15:29:06 84° WSW 15:34:57 10° S
SeaSat 1 3.2 15:24:25 10° NNE 15:29:12 50° NW 15:33:57 10° SW
SL-08 R/B 3.3 15:25:25 10° NNE 15:30:09 74° ESE 15:34:45 10° S
Meteor 2-14 Rocket 4.5 15:24:33 10° N 15:30:37 62° ENE 15:36:37 10° SSE
NOAA 12 4.1 15:26:07 10° SSE 15:31:25 78° ENE 15:36:45 10° NNW
Cosmos 1627 Rocket 4.4 15:25:25 10° N 15:31:35 68° ENE 15:37:40 10° SSE
ISS -1.8 15:28:39 10° W 15:31:43 31° SSW 15:34:46 10° SSE
CZ-4C R/B 3.0 15:28:03 10° NW 15:35:06 84° NE 15:43:27 10° SE
Cosmos 1340 Rocket 4.3 15:33:04 10° NNW 15:36:55 41° W 15:40:46 10° SSW
ADEOS 4.5 15:32:37 10° S 15:37:44 55° W 15:42:53 10° NNW
ATLAS 2AS CENTAUR R/B 4.0 15:31:23 10° WNW 15:37:58 30° N 15:43:52 11° NE
Cosmos 841 Rocket 3.6 15:33:32 10° S 15:38:35 59° ESE 15:43:39 10° NNE
Cosmos 2034 Rocket 4.2 15:32:43 10° SSW 15:38:52 77° W 15:45:06 10° N
Cosmos 1743 Rocket 4.3 15:37:33 10° NNW 15:41:48 55° W 15:46:01 10° S
Cosmos 1697 Rocket 3.9 15:36:43 10° NW 15:42:04 47° WSW 15:47:25 10° S
Spot 1 4.4 15:37:33 10° NNE 15:42:21 77° ESE 15:47:23 10° SSW
USA 307 3.0 15:39:27 10° WNW 15:43:39 59° NNE 15:47:30 12° E
Cosmos 372 Rocket 4.1 15:38:47 10° NNW 15:44:04 86° WSW 15:49:20 10° SSE
CZ-4C R/B 3.8 15:40:27 10° N 15:44:11 55° WNW 15:47:42 10° SSW
COSMOS 2428 4.5 15:41:48 10° N 15:44:37 14° NNE 15:46:42 12° NE
Cosmos 2322 Rocket 2.9 15:39:42 10° NNW 15:44:48 32° NE 15:49:52 10° ESE
Meteor PRIRODA 3.9 15:41:15 10° S 15:44:51 71° WSW 15:48:29 10° NNW
Cosmos 1937 Rocket 4.3 15:40:08 10° NNW 15:45:22 58° WSW 15:50:34 10° S
USA 234 3.3 15:39:12 10° ESE 15:45:44 79° NNE 15:52:17 10° WNW
ERBS 3.6 15:43:39 10° WNW 15:46:21 24° N 15:48:11 15° NE
Lacrosse 5 rocket 1.2 15:43:30 10° WNW 15:47:23 86° NE 15:51:28 10° ESE
Cosmos 2150 Rocket 4.4 15:43:31 10° NNW 15:48:22 38° ENE 15:53:14 10° SE
Cosmos 1980 Rocket 2.4 15:42:43 10° NNW 15:48:24 76° WSW 15:54:01 10° SSE
Cosmos 2026 Rocket 4.0 15:45:55 10° N 15:52:06 89° E 15:58:10 10° S
Cosmos 1666 Rocket 3.6 15:48:42 10° N 15:53:05 57° ENE 15:57:25 10° SSE
AQUARIUS 4.1 15:48:50 10° SSE 15:53:16 69° ENE 15:57:46 10° N
EP 1 4.4 15:51:12 10° SW 15:54:20 79° NW 15:56:07 19° NE
Cosmos 1125 Rocket 3.9 15:49:51 10° NNW 15:54:49 40° ENE 15:59:46 10° SE
Cosmos 1328 Rocket 4.3 15:51:05 10° SSE 15:55:01 32° E 15:58:56 10° NNE
CORIOLIS 4.1 15:49:46 10° SSE 15:55:09 75° ENE 16:00:37 10° NNW
Meteor 1-26 Rocket 4.4 15:49:18 10° S 15:55:16 74° E 16:01:19 10° NNE
Cosmos 1634 Rocket 4.0 15:49:26 10° S 15:55:45 74° E 16:02:04 10° NNE
Cosmos 1470 Rocket 4.2 15:52:31 10° N 15:56:35 33° ENE 16:00:39 10° SE
Meteor 1-11 Rocket 4.4 15:53:03 10° N 15:58:06 32° ENE 16:03:13 10° SE
Meteor 2-21 Rocket 4.4 15:53:05 10° N 15:59:12 74° ENE 16:05:15 10° SSE
H-2A R/B 2.1 15:54:31 10° SE 15:59:27 51° ENE 16:04:17 10° N
Cosmos 1544 4.1 15:56:40 10° NNE 15:59:39 24° ENE 16:02:39 10° SE
Cosmos 1812 2.8 15:58:59 10° S 16:02:44 54° E 16:06:32 10° NNE
PSLV R/B 3.6 16:00:01 10° SSE 16:03:39 60° ENE 16:07:24 10° N
Okean O Rocket 2.3 16:00:29 10° SE 16:04:26 32° ENE 16:08:24 10° N
ATLAS CENTAUR R/B 3.7 16:03:00 10° NW 16:05:36 15° N 16:08:07 11° NNE
SL-16 R/B 2.4 16:00:05 10° NNW 16:05:37 51° NE 16:11:08 10° SE
Cosmos 2237 Rocket 4.2 16:04:56 10° N 16:05:57 10° NNE 16:06:57 10° NNE
USA 308 2.9 16:02:09 10° WNW 16:06:24 68° NNE 16:09:19 20° E
CZ-2C R/B 4.0 16:01:52 10° S 16:06:30 47° W 16:11:06 10° NNW
Sich 1 3.7 16:04:30 10° NNW 16:08:43 58° W 16:12:58 10° S
Cosmos 2082 Rocket 2.2 16:04:08 10° SSW 16:09:49 86° ESE 16:15:05 12° NNE
ARGOS 3.5 16:05:29 10° SE 16:10:32 42° ENE 16:15:36 10° N
Cosmos 540 Rocket 3.9 16:05:41 10° SW 16:10:45 63° WNW 16:15:51 10° NNE
Meteor 1-5 Rocket 4.3 16:04:47 10° N 16:10:48 78° ENE 16:16:41 10° SSE
SKYMED 2 4.4 16:10:34 21° NE 16:12:23 29° E 16:16:10 10° SSE
COSMOS 2455 2.9 16:10:35 10° SW 16:16:36 79° NW 16:21:45 15° NE
SMAP 3.5 16:12:18 10° S 16:16:55 64° WSW 16:21:34 10° NNW
NOAA 6 4.5 16:13:17 10° S 16:18:23 66° WSW 16:23:31 10° NNW
CZ-4 R/B 3.7 16:22:56 10° NNE 16:22:56 10° NNE 16:23:01 10° NNE
deb Chang Zheng 4 3.7 16:16:20 10° SE 16:20:30 49° ENE 16:24:40 10° N
Cosmos 2278 4.3 16:16:51 10° NW 16:22:28 59° WSW 16:28:02 10° S
Cosmos 1833 Rocket 3.7 16:18:05 10° WSW 16:23:25 43° NW 16:28:49 10° NNE
Cosmos 2333 Rocket 3.2 16:20:13 10° NNW 16:24:59 26° NE 16:26:02 24° ENE
CZ-4B DEB 4.5 16:22:00 10° S 16:27:30 73° WSW 16:33:01 10° NNW
CZ-2C R/B 2.8 16:25:19 15° NNE 16:29:23 46° E 16:34:20 10° S
USA 305 2.8 16:26:32 10° WNW 16:30:48 87° NNE 16:32:51 30° ESE
Cosmos 2180 Rocket 4.4 16:24:58 10° S 16:31:13 68° E 16:37:26 10° NNE
Cosmos 1655 Rocket 4.0 16:25:01 10° N 16:31:23 63° ENE 16:37:41 10° SSE
Aureole 3 Rocket 4.3 16:27:42 10° SE 16:32:02 33° E 16:37:50 10° NNE
Cosmos 1356 Rocket 3.6 16:28:15 10° N 16:32:22 49° ENE 16:36:30 10° SSE
Cosmos 2219 Rocket 3.3 16:28:33 10° NNW 16:33:06 24° NE 16:33:21 24° NE
Cosmos 44 Rocket 4.0 16:32:11 10° NW 16:37:01 55° WSW 16:41:39 10° SSE
Cosmos 1515 Rocket 3.7 16:37:40 10° S 16:41:58 51° E 16:43:15 38° NE
COSMOS 2406 4.3 16:37:41 10° WSW 16:43:06 41° NW 16:48:00 12° NNE
Cosmos 1814 Rocket 4.2 16:38:24 10° SSW 16:43:35 69° WNW 16:47:38 17° NNE
Cosmos 921 Rocket 2.8 16:40:24 10° S 16:44:35 68° ESE 16:45:57 40° NE
CZ-4 R/B 4.3 16:46:01 10° SSE 16:50:09 77° ENE 16:54:19 10° N
Cosmos 1570 Rocket 4.2 16:45:14 10° SSW 16:50:27 70° WNW 16:54:14 19° NNE
MOS 1-B Rocket 4.0 16:44:32 10° NNE 16:50:33 86° ESE 16:57:28 10° SSW
CZ-4B R/B 3.2 16:48:10 10° SSE 16:53:34 79° WSW 16:58:55 10° NNW
USA 267 3.2 16:50:26 32° ENE 16:53:51 87° SSE 17:00:25 10° WSW
Cosmos 2298 Rocket 4.4 16:49:57 10° NNW 16:55:15 67° WSW 17:00:31 10° S
Cosmos 371 Rocket 3.8 16:51:12 10° NNW 16:55:08 40° NE 16:55:08 40° NE
Meteor 2-15 Rocket 4.3 16:53:35 10° S 16:59:40 71° E 17:05:45 10° NNE
ATLAS CENTAUR R/B 2.6 16:53:21 10° WSW 17:00:35 52° NNW 17:01:31 42° NNE
COSMO-SKYMED 1 2.4 16:59:10 41° NNE 17:00:40 83° ESE 17:05:00 10° SSW
Cosmos 1151 Rocket 4.2 16:58:25 10° SW 17:02:34 42° WNW 17:06:45 10° N
Meteor 1-27 Rocket 3.7 16:57:12 10° S 17:02:34 56° E 17:04:01 43° NE
USA 306 3.1 16:58:50 10° WNW 17:03:04 68° SSW 17:03:51 53° SSE
Landsat 5 4.0 17:05:04 42° SSE 17:05:04 42° SSE 17:07:52 10° S
APEX 3.7 17:01:47 10° SSW 17:04:24 43° SSW 17:04:24 43° SSW
Meteor 2-6 Rocket 4.5 16:59:56 10° SSW 17:05:36 69° WNW 17:11:10 10° N
SJ-11-01 4.5 17:01:45 10° S 17:06:29 72° WSW 17:11:14 10° NNW
Cosmos 2360 Rocket 2.1 17:00:57 10° NNW 17:06:37 66° ENE 17:08:17 45° ESE
Helios 1B 4.4 17:06:10 50° NNE 17:07:16 90° ENE 17:11:37 10° SSW
Cosmos 836 Rocket 4.5 17:02:10 10° S 17:07:23 62° ESE 17:08:02 57° ENE
YAOGAN 1 3.8 17:11:21 30° N 17:11:21 30° N 17:13:37 10° N
Cosmos 2237 4.1 17:04:07 10° NNW 17:09:52 88° ENE 17:13:43 22° SSE
Cosmos 1536 4.4 17:14:41 10° NNW 17:16:30 25° NNW 17:16:30 25° NNW
ATLAS 5 CENTAUR R/B 2.4 17:13:36 10° NW 17:19:28 52° SW 17:19:38 51° SW
Cosmos 2266 Rocket 4.4 17:14:07 10° NNW 17:20:27 67° W 17:26:48 10° S
USA 307 3.3 17:19:25 10° WNW 17:23:33 56° SW 17:23:33 56° SW
SL-08 RB Rocket 4.0 17:20:35 10° S 17:25:11 68° WSW 17:29:46 10° NNW
Lacrosse 5 rocket 3.7 17:23:08 10° W 17:26:06 20° SW 17:28:57 11° S
NOSS 3-4 (A) 3.8 17:21:27 10° NW 17:28:04 56° NE 17:28:52 54° ENE
NOSS 3-4 (C) 3.8 17:21:34 10° NW 17:28:10 56° NE 17:28:56 54° ENE
Cosmos 1933 Rocket 4.3 17:24:17 10° NNW 17:28:30 51° W 17:32:41 10° S
USA 234 4.2 17:22:54 10° SSE 17:29:05 44° SW 17:35:18 10° WNW
Cosmos 2322 Rocket 2.7 17:23:36 10° NW 17:29:14 60° WSW 17:34:49 10° S
COSMOS 2428 3.8 17:25:13 10° NNW 17:28:43 31° N 17:28:43 31° N
ATLAS 2AS CENTAUR R/B 3.4 17:24:02 10° NW 17:30:58 38° NNE 17:31:18 38° NNE
H-2A R/B 4.1 17:34:56 10° SSW 17:39:08 26° W 17:43:17 10° NW
Cosmos 1867 3.7 17:33:44 10° SSW 17:38:27 65° S 17:38:27 65° S
NOSS 3-3 (A) 4.2 17:33:48 10° SSW 17:38:23 51° SSE 17:38:23 51° SSE
NOSS 3-3 (C) 4.2 17:33:54 10° SSW 17:38:27 50° SSE 17:38:27 50° SSE
Okean O Rocket 3.2 17:36:40 10° SSW 17:40:44 34° W 17:44:50 10° NNW
GEOS 3 Rocket 3.7 17:41:55 70° NNW 17:41:55 70° NNW 17:46:32 10° NW
USA 32 4.4 17:39:21 10° SSW 17:44:31 63° W 17:46:22 39° NNW
Cosmos 2322 4.5 17:39:00 10° NNW 17:42:44 40° N 17:42:44 40° N
USA 308 4.2 17:42:10 10° WNW 17:45:22 37° WSW 17:45:22 37° WSW
ATLAS CENTAUR R/B 4.1 17:43:10 10° NNW 17:44:13 13° NNW 17:44:13 13° NNW
SL-16 R/B 3.8 17:44:32 10° NW 17:49:33 33° WSW 17:54:33 10° SSW
Cosmos 2237 Rocket 4.2 17:47:29 10° NNW 17:49:04 17° N 17:49:04 17° N
Cosmos 2082 Rocket 4.1 17:50:04 10° W 17:54:38 24° NW 17:56:56 19° N
COSMOS 2455 4.4 17:58:29 10° W 18:03:29 26° NNW 18:04:54 24° N
CZ-2C R/B 4.2 18:06:51 19° NNW 18:09:31 31° WNW 18:14:00 10° WSW
Cosmos 2333 Rocket 3.0 18:04:11 10° NNW 18:08:05 44° NW 18:08:05 44° NW
Cosmos 2219 Rocket 3.5 18:12:06 10° NNW 18:15:05 32° NNW 18:15:05 32° NNW
USA 267 3.9 18:37:47 50° NW 18:37:47 50° NW 18:43:01 10° W
Cosmos 2360 Rocket 4.1 18:45:40 10° NW 18:50:08 25° WSW 18:50:08 25° WSW
ATLAS 2AS CENTAUR R/B 4.3 19:15:24 10° NW 19:18:44 29° NW 19:18:44 29° NW
